User: anonymous   Login
Location: Unspecified
(0.0000°N, 0.0000°E)
Time: 07:16:23
(UTC+00:00)
Language:

A-11 Canister half - Orbit

View from above orbital plane
View from above orbital plane
View from above satellite
View from above satellite

Ground track
Ground track

The orbit data is extracted from the following two-line orbital elements,

1 00051U 60009C   14325.45354453 -.00000084  00000-0  00000+0 0  6842
2 00051 047.2104 163.1134 0102616 232.3311 213.6683 12.18241682416001
Epoch (UTC): 21 November 2014 10:53:06
Eccentricity: 0.0102616
inclination: 47.2104°
perigee height: 1518 km
apogee height: 1682 km
right ascension of ascending node: 163.1134°
argument of perigee: 232.3311°
revolutions per day: 12.18241682
mean anomaly at epoch: 213.6683°
orbit number at epoch: 41600

The dashed part of the orbit path shows where the satellite is in the earth's shadow,  

DLR